Other Public Products
Issued by NWS Grand Forks, ND

Home | Current Version | Previous Version | Graphics & Text | Print | Product List | Glossary On
Versions: 1 2 3 4 5 6 7 8 9 10 11 12 13 14 15 16 17 18 19 20 21 22 23 24 25 26 27 28 29 30 31 32 33 34 35 36 37 38 39 40 41 42 43 44 45 46 47 48 49 50
000
FPUS83 KFGF 260410
OPUFGF
PRAIRIE TO PINES WEATHER ROUNDUP
NATIONAL WEATHER SERVICE EASTERN NORTH DAKOTA/GRAND FORKS ND
1100 PM CDT SUN JUN 25 2017

 **SATELLITE DATA USED TO AUGMENT SKY COVER AT AUTOMATED STATIONS**
 *****  WEATHER ACROSS EASTERN NORTH DAKOTA  *****

CITY           SKY/WX    TMP DP  RH WIND       PRES   REMARKS
GRAND FORKS    FAIR      50  43  77 W5        30.20R
GRAND FORKS AF FAIR      45  42  90 W3        30.21R
GRAND CITY NWS NOT AVBL
BUXTON         NOT AVBL
DEVILS LAKE    FAIR      50  41  71 CALM      30.24R
FARGO          FAIR      52  39  61 N6        30.20R
WAHPETON ARPT  FAIR      54  39  58 N5        30.19S
$$

 *****  WEATHER ACROSS CENTRAL AND WESTERN NORTH DAKOTA  *****

CITY           SKY/WX    TMP DP  RH WIND       PRES   REMARKS
JAMESTOWN      FAIR      49  41  74 N6        30.23R
BISMARCK       FAIR      53  45  74 E3        30.25R
MINOT          FAIR      53  40  61 CALM      30.24R
MINOT AFB      FAIR      54  40  60 CALM      30.23R
GARRISON         N/A     56  41  57 E7        30.24R
WILLISTON      FAIR      60  45  57 E3        30.23R
DICKINSON      FAIR      52  39  61 E9        30.22S
HETTINGER      FAIR      56  40  55 E9        30.25R
$$

 *****  OTHER OBSERVATIONS NORTHEAST NORTH DAKOTA  *****

CITY           SKY/WX    TMP DP  RH WIND       PRES   REMARKS
WALHALLA       NOT AVBL
LANGDON        FAIR      48  43  81 CALM      30.23S
CAVALIER       FAIR      50  45  81 W3        30.20S
GRAFTON        FAIR      54  46  76 NW5       30.22S
CANDO          NOT AVBL
FORT TOTTEN      N/A     54  41  62 E2        29.95S
ROLLA            N/A     45  43  93 W5        30.24S
RUGBY          NOT AVBL
 ***** THE ABOVE OBSERVATIONS ARE NON NWS ARE NOT QUALITY
        CONTROLLED AND MAY MIS-REPORT RAIN FOR SNOW...
$$

 *****  OTHER OBSERVATIONS SOUTHEAST NORTH DAKOTA *****

CITY           SKY/WX    TMP DP  RH WIND       PRES   REMARKS
COOPERSTOWN    FAIR      50  43  76 N5        30.23R
VALLEY CITY    FAIR      48  41  76 CALM      30.24R
OAKES          NOT AVBL
GWINNER        CLOUDY    52  48  87 CALM      30.21R
SHEYENNE NWR     N/A     52  40  63 N3        29.95S
BUFFALO        NOT AVBL
WYNDMERE       NOT AVBL
 ***** THE ABOVE OBSERVATIONS ARE NON NWS ARE NOT QUALITY
       CONTROLLED AND MAY MIS-REPORT RAIN FOR SNOW...
$$

  *****  WEATHER ACROSS NORTHERN MINNESOTA  *****

CITY           SKY/WX    TMP DP  RH WIND       PRES   REMARKS
FLAG ISLAND    FAIR      54  45  71 W8        30.14S
WARROAD        FAIR      48  45  87 W5        30.17S
ROSEAU         FAIR      50  45  81 W5        30.18R
HALLOCK        FAIR      50  45  81 NW5       30.19S
THF RVR FALLS  FAIR      49  45  86 NW3       30.20S
HALSTAD        NOT AVBL
FOSSTON        FAIR      45  39  81 CALM      30.19S
BAUDETTE       MOCLDY    48  45  89 W5        30.15R
WASKISH        FAIR      43  41  93 CALM      30.16S
CROOKSTON      FAIR      54  45  71 N3        30.21R
$$
  *****  WEATHER ACROSS CENTRAL AND WEST MINNESOTA  *****

CITY           SKY/WX    TMP DP  RH WIND       PRES   REMARKS
BEMIDJI        FAIR      44  41  88 W6        30.17S
PARK RAPIDS    FAIR      47  40  76 NW7       30.16S
WADENA         FAIR      48  43  81 N5        30.17S
DETROIT LAKES  FAIR      52  45  76 NW3       30.19S
MOORHEAD       FAIR      52  41  66 N3        30.21R
FERGUS FALLS   FAIR      54  43  66 N3        30.17R
ELBOW LAKE     FAIR      52  51  95 NW3       30.19R
MORRIS MN      FAIR      54  52  94 NW6       30.17S
STAPLES        FAIR      48  45  87 CALM      30.17R
WHEATON        FAIR      52  48  87 CALM      30.20S
$$
  *****  WEATHER ELSEWHERE ACROSS MINNESOTA  *****

CITY           SKY/WX    TMP DP  RH WIND       PRES   REMARKS
DULUTH         FAIR      46  44  93 N8        30.10S
INTRNTL FALLS  FAIR      46  43  89 NW6       30.13S
ELY            LGT RAIN  46  45  93 CALM      30.11S
CLOQUET        FAIR      46  43  87 NW5       30.12S
BRAINERD       FAIR      52  42  69 CALM      30.15S
HIBBING        FAIR      42  42 100 NW3       30.12S
ALEXANDRIA     MOCLDY    55  44  66 NW6       30.18R
SAINT CLOUD    FAIR      54  43  66 N5        30.15R
MINNEAPOLIS    MOCLDY    60  43  53 W8        30.13S
$$

  *****  WEATHER ACROSS SOUTH DAKOTA  *****

CITY           SKY/WX    TMP DP  RH WIND       PRES   REMARKS
SIOUX FALLS    LGT RAIN  59  50  72 NE5       30.22R
BROOKINGS      MOCLDY    54  51  90 SW6       30.21R
WATERTOWN      FAIR      50  47  89 CALM      30.20R
HURON          LGT RAIN  57  51  80 E6        30.20R
SISSETON         N/A     52  47  83 W7        30.18S
ABERDEEN       FAIR      53  47  79 N5        30.22R
MITCHELL       MOCLDY    61  50  67 E8        30.18R
PIERRE         FAIR      57  45  64 NE9       30.19R
MOBRIDGE       FAIR      58  44  60 E10       30.20R
RAPID CITY     FAIR      61  33  35 NE13      30.22R
$$

  *****  SOME WEATHER IN NEARBY STATES *****

CITY           SKY/WX    TMP DP  RH WIND       PRES   REMARKS
GLASGOW MT     FAIR      64  35  34 NE12      30.19R
GREAT FALLS MT FAIR      68  40  35 E10       30.15S
CHEYENNE WY    FAIR      59  48  67 SW7       30.36R
SCOTTSBLUFF NE FAIR      66  49  54 S8        30.23R
OMAHA NE       FAIR      64  46  52 S3        30.19F
DES MOINES IA  FAIR      65  43  44 CALM      30.19S
DAVENPORT IA   FAIR      55  50  83 W5        30.16S
CHICAGO IL     MOCLDY    62  49  62 W9        30.11R
EAU CLAIRE WI  FAIR      49  48  97 CALM      30.10F
LA CROSSE WI   FAIR      63  47  55 NW8       30.10S
$$

  *****  SOME NATIONAL WEATHER *****

CITY           SKY/WX    TMP DP  RH WIND       PRES   REMARKS
LA GUARDIA NY  MOCLDY    78  52  40 NW20G25   29.95R
RALEIGH NC     MOCLDY    71  65  81 CALM      30.11R
ATLANTA GA     MOCLDY    68  61  78 NW12      30.16S
NEW ORLEANS LA LGT RAIN  77  73  87 NE7       30.12R
OKLAHOMA CITY  MOCLDY    70  50  49 E9        30.18R
ALBUQUERQUE NM CLOUDY    70  51  51 E3        30.27R
SALT LAKE CITY FAIR      80  54  40 N7        30.08S
LOS ANGELES CA FAIR      68  60  75 CALM      29.87F
BOISE ID       FAIR      86  44  23 N6        29.96S
SEATTLE WA     MOCLDY    83  51  33 NW3       29.84S
$$

*** WEATHER ACROSS MANITOBA...SASKATCHEWAN AND ONTARIO ***
                ***ONTARIO***

CITY           SKY/WX    TMP DP  RH WIND       PRES   REMARKS
GERALDTON      PTCLDY    45  36  70 CALM      30.01F
THUNDER BAY    LGT RAIN  50  48  93 W6        30.03R
SIOUX LOOKOUT  MOCLDY    50  46  87 W6        30.07F
TORONTO        MOCLDY    61  52  72 W8        29.97F
BIG TROUT LK   MOCLDY    50  46  87 SW5       29.96F
PICKLE LAKE    NOT AVBL
DRYDEN         MOCLDY    50  46  87 W5        30.10S
KENORA         MOCLDY    54  43  66 NW6       30.14R
$$
                *** MANITOBA***

CITY           SKY/WX    TMP DP  RH WIND       PRES   REMARKS
BRANDON        PTCLDY    52  43  71 N2        30.22S
DAUPHIN        CLEAR     50  43  76 SW6       30.20S
ISLAND LAKE    PTCLDY    52  50  93 NW2       30.07R
PILOT MOUND      N/A     50  43  76 S1          N/A
THE PAS        PTCLDY    54  41  62 CALM      30.15S
THOMPSON       NOT AVBL
WINNIPEG       PTCLDY    46  45  93 W8        30.18S
LYNN LAKE      CLEAR     59  41  51 W6        30.09S
CHURCHILL      MOCLDY    52  43  71 S7        29.94F
GILLAM         MOCLDY    48  45  87 S5        30.04S
$$
                ***SASKATCHEWAN***

CITY           SKY/WX    TMP DP  RH WIND       PRES   REMARKS
ESTEVAN        PTCLDY    50  45  81 NE7       30.24S
KINDERSLEY     PTCLDY    55  45  67 E10       30.18S
LLOYDMINSTER   MOCLDY    63  45  51 SE13      30.15F
PRINCE ALBERT  PTCLDY    57  45  62 SW2       30.21S
REGINA         PTCLDY    57  37  47 NE7       30.26S
YORKTON        CLEAR     57  39  51 W6        30.23S



USA.gov is the U.S. government's official web portal to all federal, state and local government web resources and services.